Regional Weather Roundup
Issued by NWS

Home | Current Version | Previous Version | Text Only | Print | Product List | Glossary On
Versions: 1 2 3 4 5 6 7 8 9 10 11 12 13 14 15 16 17 18 19 20 21 22 23 24 25 26 27 28 29 30 31 32 33 34 35 36 37 38 39 40 41 42 43 44 45 46 47 48 49 50
000
ASUS42 KFFC 210110
RWRGA
WEATHER ROUNDUP FOR GEORGIA
NATIONAL WEATHER SERVICE PEACHTREE CITY GA
900 PM EDT THU JUL 20 2017

NOTE: "FAIR" INDICATES FEW OR NO CLOUDS BELOW 12,000 FEET WITH NO
SIGNIFICANT WEATHER AND/OR OBSTRUCTIONS TO VISIBILITY.

* = USE WITH CAUTION. THE STATIONS MARKED WITH AN ASTERISK MAY NOT
REPORT WEATHER SUCH AS PRECIPITATION, FOG, OR THUNDER AND ARE NOT
QUALITY CONTROLLED BY NWS.

THE REMARK "TC" DENOTES TEMPERATURE READING IN DEGREES CELSIUS.

GAZ001>058-210200-
NORTH GEORGIA

CITY           SKY/WX    TMP DP  RH WIND       PRES   REMARKS
ATLANTA        PTCLDY    86  70  58 NW9       30.04R HX  90
ATHENS         CLEAR     81  72  74 CALM      30.02R
CHAMBLEE       CLEAR     85  70  60 NW6       30.04R
PEACHTREE CITY PTCLDY    79  75  87 CALM      30.04S
ROME           CLEAR     83  77  82 CALM      30.02S HX  92
WEST ATLANTA   MOCLDY    85  71  63 NW3       30.03S HX  90
GAINESVILLE    CLEAR     84  70  62 NW3       30.06S
CARTERSVILLE   CLEAR     79  77  94 CALM      30.04R


CITY           SKY/WX    TMP DP  RH WIND       PRES   REMARKS
LAWRENCEVILLE* CLEAR     84  72  65 W7        30.05R
MARIETTA       PTCLDY    86  69  57 NW7       30.04S HX  90
KENNESAW*      CLEAR     84  70  61 CALM      30.05S
CANTON*        CLEAR     82  73  74 W5        30.06F
$$

GAZ059>098-102>109-210200-
CENTRAL GEORGIA

CITY           SKY/WX    TMP DP  RH WIND       PRES   REMARKS
AUGUSTA-BUSH   CLOUDY    83  70  64 S10       30.02R
AUGUSTA-DANIEL LGT RAIN  81  73  76 S6        30.03S
COLUMBUS       PTCLDY    85  73  67 N7        30.02R HX  91
MACON          MOCLDY    87  74  64 CALM      30.00R HX  95
ROBINS AFB     MOCLDY    91  72  52 SE3       30.00R HX  98


CITY           SKY/WX    TMP DP  RH WIND       PRES   REMARKS
LAGRANGE*      PTCLDY    82  79  91 CALM      30.04S HX  92
SYLVANIA*      CLOUDY    78  75  91 CALM      30.04S
MILLEDGEVILLE* MOCLDY    86  73  66 CALM      30.00S HX  93
$$

GAZ099>101-110>166-210200-
SOUTH GEORGIA

CITY           SKY/WX    TMP DP  RH WIND       PRES   REMARKS
SAVANNAH       PTCLDY    79  72  79 S5        30.03R
VALDOSTA       MOCLDY    77  71  82 E9        30.05R
ALMA           CLOUDY    76  71  85 SE6       30.04R
ST SIMONS      PTCLDY    83  74  74 S7        30.04S
FT STEWART     CLOUDY    74  70  86 S6        30.02R
ALBANY         CLOUDY    86  74  67 CALM      30.03R HX  94
HUNTER AFB     PTCLDY    77  70  78 SW3       30.01R
MOODY AFB      MOCLDY    77  72  83 SE9       30.03R
BRUNSWICK      PTCLDY    79  72  78 SW3       30.05F


CITY           SKY/WX    TMP DP  RH WIND       PRES   REMARKS
BAINBRIDGE*    CLOUDY    86  79  79 S5        30.01S HX  99
MOULTRIE*      CLOUDY    75  72  88 CALM      30.05R
VIDALIA*       CLOUDY    79  72  78 S5        30.03S
WAYCROSS*      CLOUDY    75  75 100 CALM      30.05S
DOUGLAS*       CLOUDY    77  70  78 SW5       30.06R
$$




USA.gov is the U.S. government's official web portal to all federal, state and local government web resources and services.